Aérodrome :
LOGIN :

S'inscrire | Disclaimer

   EN    FR    IT 

 










Légende :    VFR   VFR Marginal   IFR   IFR Intensif   IFR Très Intensif
Visi : 
Plafond : 
>= 8 km
>= 3000ft
5 à 8 km
1000 à 3000 ft
1500m à 5 km
500 à 1000 ft
800 à 1500m
200 à 500 ft
< 800m
< 200 ft
Symboles :   Orages  Brouillard  Fortes neiges  Fortes précipitations  Vent > 20 kt
SIGMETs :   Divers  Orages  Givrage  Turbulence  Onde Orograph.  Cendres Volcan.






- Altitude de l'aérodrome : 19 ft
- Code IATA : BEB


EGPL - Benbecula

DERNIER METAR :
  • 221820Z AUTO 17007KT 9999 NCD 08/05 Q1001

METARs EXPIRÉS :
  • 221750Z AUTO 16006KT 9999 FEW035/// 08/05 Q1001
  • 221720Z AUTO 16006KT 9999 SCT035/// 07/05 Q1001
  • 221650Z AUTO 16004KT 9999 NCD 07/05 Q1001
  • 221620Z AUTO 19005KT 9999 SCT046/// 08/04 Q1001
  • 221550Z AUTO 19007KT 9999 OVC039/// 09/04 Q1001

Prévision TAF périmée.
ATIS : +44 1870 604 818



MET'MAP, la Météo Aéronautique d'un coup d'oeil ! - Copyright ORBIFLY Décembre 2007 - Disclaimer

ORBIFLY MET'MAP TEAM :

Programmation & Développement : Alexandra Zaïnal
Sur une idée originale de : Baudouin d'Aumeries
Assistance à la programmation : Marc-Olivier Méhu
Soutien technique & logistique : Manuel Goepfert

Contact : metmap@orbifly.com




SOURCES & CREDITS :

   NOAA